Location: Charlotte
(35.2269°N, 80.8433°W)
Time: 17:44:22
(UTC-05:00)

ISS - Visible Passes

Search period start: 01 February 2015 00:00
Search period end: 11 February 2015 00:00
Orbit: 400 x 408 km, 51.6° (Epoch: 01 February)

Date Brightness Start Highest point End Pass type
(mag) Time Alt. Az. Time Alt. Az. Time Alt. Az.
01 Feb -0.8 19:29:33 10° S 19:30:01 12° S 19:30:01 12° S visible
02 Feb -0.2 20:12:44 10° WSW 20:13:12 13° WSW 20:13:12 13° WSW visible
03 Feb -3.3 19:20:25 10° SW 19:23:34 58° SE 19:23:34 58° SE visible
04 Feb -2.1 18:28:34 10° S 18:31:19 26° SE 18:33:50 12° ENE visible
04 Feb -0.7 20:04:58 10° W 20:06:31 20° WNW 20:06:31 20° WNW visible
05 Feb -2.6 19:12:05 10° WSW 19:15:15 48° NW 19:16:38 27° NNE visible
06 Feb -3.4 18:19:33 10° SW 18:22:47 78° SE 18:26:03 10° NE visible
06 Feb -0.5 19:57:52 10° WNW 19:59:20 13° NNW 19:59:20 13° NNW visible
07 Feb -1.2 19:04:19 10° W 19:06:55 21° NNW 19:09:15 11° NNE visible
09 Feb -0.6 18:57:20 10° NW 18:58:39 12° NNW 18:59:54 10° N visible
